Portada
METAR-TAF:

METAR-TAF

Aeroports :

Guwahati, Índia

latitud: 26-06-22N, longitud: 091-35-09E, altitud: 49 m

Observació

L'informe es va fer fa 48 minuts, a les 18:30 UTC
Vent 4 kt del Sud/Sud-Oest
Temperatura 27°C
Humitat 94%
Pressió 1012 hPa
Visibilitat: 3000 m
Escasses núvols a una alçada de 1800 ft
Núvols disperses a una alçada de 10000 ft
boirina

METAR: VEGT 211830Z 21004KT 3000 BR FEW018 SCT100 27/26 Q1012 NOSIG

Hora: 00:48 (19:18 UTC)


TAF: manca

Observacions i pronòstics meteorològics de més de 4000 aeroports (METAR i TAF).

Les estacions disponibles són els punts grocs i vermells al mapa.

Posi el ratolí al punt desitjat per veure el nom de l'estació.

Feu clic per veure les observacions i els pronòstics meteorològics.

Per canviar el mapa: feu clic els botons verds amb una creu de color negre per apropar; al botó verd amb un guió per allunyar la imatge; o en les fletxes verdes per a mapes adjacents.


METAR-TAF: